Regional Weather Roundup
Issued by NWS Midland/Odessa, TX

Skip options and go directly to product.
Home | Oldest Version | Previous Version | Current Version | All | Graphics & Text | Save Text | Print | Product List | Glossary On

Skip product version selection by date and time.   
801
ASUS44 KMAF 210710
RWRMAF
MIDLAND AREA WEATHER ROUNDUP
NATIONAL WEATHER SERVICE MIDLAND TX
200 AM CDT TUE OCT 21 2014

...IN SOUTHWEST TEXAS AND SOUTHEAST NEW MEXICO...

CITY           SKY/WX    TMP DP  RH WIND       PRES   REMARKS
ALPINE         PTCLDY    59  55  86 CALM      30.16R
ANDREWS        FAIR      57  51  81 CALM      30.10S
ARTESIA        NOT AVBL
BIG SPRING     CLEAR     63  53  69 E8        30.11R
CARLSBAD       CLOUDY    61  58  90 N8        30.09S
DRYDEN           N/A     66  62  87 NE7       30.02F
FORT STOCKTON  MOCLDY    63  58  83 SE9       30.06F
GUAD PASS      CLOUDY    56  53  90 NE14      30.17R
HOBBS          MOCLDY    59  59 100 NE5       30.12S
MARFA          CLOUDY    55  55 100 E9        30.14S
MIDLAND AIRPK  CLEAR     63  53  69 SE6       30.09S
MIDLAND INTL   CLEAR     62  51  67 S6        30.08S
ODESSA         CLEAR     62  51  67 SE6       30.09S
PECOS          CLOUDY    63  61  95 NE3       30.06S
PRESIDIO       CLOUDY    66  59  77 N10       30.03R
SEMINOLE       PTCLDY    56  51  82 CALM      30.12R
SNYDER         CLEAR     60  53  75 S8        30.09S
WINK           PTCLDY    61  60  97 E5        30.06S
$$
...OTHER STATIONS IN TEXAS...

CITY           SKY/WX    TMP DP  RH WIND       PRES   REMARKS
ABILENE        CLEAR     63  54  72 S6        30.07S
AMARILLO       CLEAR     58  52  80 S9        30.12R
AUSTIN         PTCLDY    60  59  96 CALM      30.03S
BROWNSVILLE    CLEAR     73  69  87 NE5       29.92F
CORPUS CHRISTI MOCLDY    73  70  90 NE7       29.96S
DALLAS FTW     CLEAR     65  58  78 CALM      30.04S
DEL RIO        CLOUDY    71  60  68 E6        30.00S
EL PASO        MOCLDY    61  55  81 N9        30.07S
HOUSTON INT    MOCLDY    61  56  83 N5        30.01F
LUBBOCK        PTCLDY    57  51  80 S6        30.10S
SAN ANGELO     CLEAR     60  51  72 CALM      30.07R
SAN ANTONIO    MOCLDY    68  59  73 NE3       30.03R
WACO           PTCLDY    59  58  96 CALM      30.04R
WICHITA FALLS  NOT AVBL
$$
...OTHER LOCATIONS IN NEW MEXICO...

CITY           SKY/WX    TMP DP  RH WIND       PRES   REMARKS
ALAMAGORDO     NOT AVBL
ALBUQUERQUE    PTCLDY    54  47  77 SE6       30.18S
CANNON AFB     PTCLDY    55  52  88 NW6       30.15S
CLOVIS         NOT AVBL
HOLLOMAN AFB   PTCLDY    56  56 100 CALM      30.08S
ROSWELL        LGT RAIN  59  56  89 N7        30.11F
RUIDOSO        CLOUDY    46  46 100 SE3       30.24F
SANTA FE       MOCLDY    50  45  83 SE3       30.22F
TRUTH OR CONSE MOCLDY    56  54  93 NW7       30.12F
TUCUMCARI      PTCLDY    54  47  77 SW3       30.12S
$$

USA.gov is the U.S. government's official web portal to all federal, state and local government web resources and services.